JA3VQW-13 Hirakata JP current weather conditions

sailwx.info

Wind from 225

Air temperature 15.0° C
Dewpoint -5.4° C

Last reported at 2017-Apr-23 11:06 UTC.
Time now 2017-Apr-23 11:51 UTC

Location: N 34°48' E 135°40'.
View on Google Maps.

See reports from other nearby stations

  
Tides and Currents Weather Stations Pressure Air Temp Water Temp Dewpoint Dewpoint Depression Visibility Wind Speed Wind Dir Waves Ship Positions
date/time (UTC)wind fromknots sea level pressurealtimeterstation pressurevisibilityair tempwater tempwave heightnotes
2017-Apr-23 11:06 225 15.0
2017-Apr-23 10:36 135 16.1
2017-Apr-23 10:06 177 17.2
2017-Apr-23 09:36 270 18.9
2017-Apr-23 09:06 293 21.7
2017-Apr-23 08:36 273 22.8
2017-Apr-23 08:06 262 24.4
2017-Apr-23 07:36 241 25.0
2017-Apr-23 07:06 315 4 gusting 6 24.4
2017-Apr-23 06:36 177 25.0
2017-Apr-23 06:06 300 25.6
2017-Apr-23 05:36 135 24.4
2017-Apr-23 05:06 239 1 23.3
2017-Apr-23 04:36 284 2 gusting 6 22.8
2017-Apr-23 04:06 173 21.7
2017-Apr-23 03:36 278 21.1
2017-Apr-23 03:06 313 21.1
2017-Apr-23 02:36 193 4 gusting 4 19.4
2017-Apr-23 02:06 292 17.8
2017-Apr-23 01:36 288 2 gusting 4 15.6
2017-Apr-23 01:06 248 15.6
2017-Apr-23 00:36 286 15.0
2017-Apr-23 00:06 244 13.9
2017-Apr-22 23:36 270 12.8
2017-Apr-22 23:06 315 12.2
2017-Apr-22 22:36 135 11.1
2017-Apr-22 22:06 135 10.0
2017-Apr-22 21:36 135 8.9
2017-Apr-22 21:06 135 8.3
2017-Apr-22 20:36 135 7.8
2017-Apr-22 20:06 135 8.3
2017-Apr-22 19:36 135 0 8.3
2017-Apr-22 19:06 112 8.3
2017-Apr-22 18:36 112 8.9
2017-Apr-22 18:22 113 9.4
2017-Apr-22 18:06 292 9.4
2017-Apr-22 17:36 248 9.4
2017-Apr-22 17:06 135 9.4
2017-Apr-22 16:36 292 10.0
2017-Apr-22 16:06 292 10.6
2017-Apr-22 15:36 180 10.6
2017-Apr-22 15:06 248 10.6
2017-Apr-22 14:36 248 11.1
2017-Apr-22 14:06 248 11.1
2017-Apr-22 13:36 248 11.7
2017-Apr-22 13:06 270 11.7
2017-Apr-22 12:36 270 11.7
2017-Apr-22 12:06 195 12.2
2017-Apr-22 11:36 225 12.8
2017-Apr-22 11:06 288 13.3
2017-Apr-22 10:36 270 13.3
2017-Apr-22 10:06 267 13.9
2017-Apr-22 09:36 269 15.6
2017-Apr-22 09:06 201 17.2
2017-Apr-22 08:36 177 20.0
2017-Apr-22 08:06 273 21.1
2017-Apr-22 07:36 295 20.6
2017-Apr-22 07:06 252 0 gusting 2 21.7
2017-Apr-22 06:36 202 0 gusting 1 23.3
2017-Apr-22 06:06 326 23.3
2017-Apr-22 05:36 264 23.3
2017-Apr-22 05:06 257 22.8
2017-Apr-22 04:36 219 22.8
2017-Apr-22 04:06 292 22.8
2017-Apr-22 03:36 298 2 gusting 6 22.2
2017-Apr-22 03:06 299 0 gusting 4 22.2
2017-Apr-22 02:36 290 2 gusting 6 20.6
2017-Apr-22 02:06 292 19.4
2017-Apr-22 01:36 315 19.4
2017-Apr-22 01:06 250 18.3
2017-Apr-22 00:36 258 17.2
2017-Apr-22 00:06 200 16.7
2017-Apr-21 23:36 292 1 gusting 4 15.6
2017-Apr-21 23:06 304 0 gusting 4 15.0
2017-Apr-21 22:36 300 14.4
2017-Apr-21 22:06 292 0 gusting 2 13.9
2017-Apr-21 21:36 292 2 gusting 2 13.9
2017-Apr-21 21:06 248 13.3
2017-Apr-21 20:36 225 13.3
2017-Apr-21 20:06 225 13.3
2017-Apr-21 19:36 210 13.9
2017-Apr-21 19:06 270 13.9
2017-Apr-21 18:36 225 13.9
2017-Apr-21 18:06 225 13.9
2017-Apr-21 17:36 225 13.9
2017-Apr-21 17:06 225 13.9
2017-Apr-21 16:36 225 14.4
2017-Apr-21 16:06 270 14.4
2017-Apr-21 15:36 270 14.4
2017-Apr-21 15:06 270 15.0
2017-Apr-21 14:36 225 15.0
2017-Apr-21 14:06 158 15.6
2017-Apr-21 13:36 135 16.1
2017-Apr-21 13:06 242 16.7
2017-Apr-21 12:36 202 16.7
2017-Apr-21 12:06 180 17.2
2017-Apr-21 11:52 180 17.8
2017-Apr-21 11:36 285 17.8
2017-Apr-21 11:06 278 0 gusting 4 17.8